Location: Potawatomi Wildlife Park
(41.2308°N, 86.1050°W)
Time: 18:05:27

Hubble Space Telescope - Visible Passes

Search period start: 29 November 2015 00:00
Search period end: 09 December 2015 00:00
Orbit: 540 x 544 km, 28.5° (Epoch: 28 November)

Date Brightness Start Highest point End Pass type
(mag) Time Alt. Az. Time Alt. Az. Time Alt. Az.
06 Dec 3.8 06:29:33 10° S 06:29:46 10° SSE 06:30:04 10° SSE visible
07 Dec 3.5 06:19:04 10° S 06:20:24 11° S 06:21:47 10° SSE visible
08 Dec 3.4 06:09:16 10° SSW 06:11:02 12° S 06:12:49 10° SSE visible
